This demonstration page uses our WeatherBlox Daily Observations layout. Learn more.

Left ArrowRight Arrow

41.86663, -103.66717

Hourly Observations for April 22, 2021

Temp ( °F °C ) Dew Point ( °F °C ) Humidity (%) Winds ( mph kmh ) Pressure ( in mb ) Visibility ( mi km ) Precip ( " mm )
12:53 am 00:53 Cloudy 36 2.2 28 -2.2 73 73 ESE 9 15 30.01 1016 10 16.0934 0 0
1:04 am 01:04 Cloudy 37 2.8 29 -1.7 73 73 SE 10 17 30.05 1017 10 16.0934 0 0
1:53 am 01:53 Cloudy 37 2.8 31 -0.6 79 79 SE 8 13 29.98 1015 10 16.0934 0 0
2:53 am 02:53 Cloudy 37 2.8 30 -1.1 76 76 SSE 8 13 29.95 1014 10 16.0934 0 0
3:34 am 03:34 Cloudy 36 2.2 28 -2.2 73 73 SSE 10 17 30 1016 10 16.0934 0 0
3:53 am 03:53 Cloudy 35 1.7 27 -2.8 72 72 SSE 13 20 29.93 1014 10 16.0934 0 0
4:53 am 04:53 Mostly Cloudy 33 0.6 27 -2.8 78 78 ESE 13 20 29.91 1013 10 16.0934 0 0
5:53 am 05:53 Clear 30 -1.1 27 -2.8 88 88 ESE 14 22 29.88 1012 10 16.0934 0 0
6:50 am 06:50 Partly Cloudy 30 -1 27 -3 86 86 ESE 12 19 29.99 1015 7 11.26538 0 0
6:53 am 06:53 Mostly Cloudy 31 -0.6 28 -2.2 89 89 ESE 12 19 29.89 1012 7 11.26538 0 0
7:33 am 07:33 Mostly Cloudy 33 0.6 29 -1.7 85 85 ESE 14 22 29.94 1014 10 16.0934 0 0
7:53 am 07:53 Mostly Cloudy 34 1.1 29 -1.7 82 82 ESE 14 22 29.88 1012 10 16.0934 0 0
8:48 am 08:48 Mostly Cloudy 37 3 27 -3 65 65 SE 14 22 29.88 1012 10 16.0934 0 0
8:53 am 08:53 Mostly Cloudy 37 2.8 26 -3.3 65 65 SSE 13 20 29.84 1011 10 16.0934 0 0
9:53 am 09:53 Mostly Cloudy 40 4.4 27 -2.8 60 60 S 8 13 29.81 1010 10 16.0934 0 0
10:22 am 10:22 Mostly Sunny 41 5 27 -2.8 57 57 S 12 19 29.82 1010 10 16.0934 0 0
10:53 am 10:53 Mostly Sunny 42 5.6 27 -2.8 55 55 VRB 7 11 29.8 1009 10 16.0934 0 0
11:53 am 11:53 Sunny 47 8.3 28 -2.2 48 48 SSE 12 19 29.78 1008 10 16.0934 0 0
12:53 pm 12:53 Sunny 52 11.1 28 -2.2 40 40 S 7 11 29.72 1007 10 16.0934 0 0
1:53 pm 13:53 Sunny 54 12.2 26 -3.3 34 34 W 6 9 29.7 1006 10 16.0934 0 0
2:53 pm 14:53 Sunny 59 15 21 -6.1 23 23 NW 10 17 29.67 1005 10 16.0934 0 0
3:53 pm 15:53 Sunny 60 15.6 20 -6.7 21 21 NW 9 15 29.65 1004 10 16.0934 0 0
4:53 pm 16:53 Sunny 61 16.1 19 -7.2 20 20 undefined N/A 29.64 1004 10 16.0934 0 0
5:53 pm 17:53 Mostly Sunny 62 16.7 19 -7.2 19 19 NW 7 11 29.64 1004 10 16.0934 0 0
6:53 pm 18:53 Sunny 60 15.6 20 -6.7 21 21 W 15 24 29.64 1004 10 16.0934 0 0
7:53 pm 19:53 Partly Cloudy 50 10 25 -3.9 38 38 NNE 8 13 29.7 1006 10 16.0934 0 0
8:53 pm 20:53 Clear 43 6.1 27 -2.8 53 53 NNE 9 15 29.74 1007 10 16.0934 0 0
9:53 pm 21:53 Clear 39 3.9 27 -2.8 62 62 N 6 9 29.78 1008 10 16.0934 0 0
10:53 pm 22:53 Clear 38 3.3 27 -2.8 65 65 NNW 3 6 29.78 1009 10 16.0934 0 0
11:53 pm 23:53 Clear 33 0.6 25 -3.9 72 72 N 6 9 29.79 1009 10 16.0934 0 0

Powered by AerisWeather